Gallup, NM

10:44 AM MDT on September 28, 2016 (GMT -0600)
Gallup Municipal

Weather History for KGUP - July, 2013

Change the Weather History Date:

Sunday, July 28, 2013

  Actual Average Record
Temperature  
Mean Temperature 70 °F -  
Max Temperature 81 °F 84 °F 98 °F (2016)
Min Temperature 59 °F 53 °F 39 °F (1993)
Cooling Degree Days 4    
Growing Degree Days 20 (Base 50)    
Moisture  
Dew Point 55 °F    
Average Humidity 65    
Maximum Humidity 93    
Minimum Humidity 34    
Precipitation  
Precipitation 0.07 in - - ()
Sea Level Pressure  
Sea Level Pressure 29.76 in    
Wind  
Wind Speed 8 mph (West)    
Max Wind Speed 34 mph    
Max Gust Speed 43 mph    
Visibility 10 miles    
Events Rain , Thunderstorm    
Averages and records for this station are not official NWS values.
T = Trace of Precipitation, MM = Missing Value Source: NWS Daily Summary

Daily Weather History Graph

Daily Weather History Graph

Search for Another Location

Airport or City:

Trip Planner

Search our weather history database for the weather conditions in past years. The results will help you decide how hot, cold, wet, or windy it might be!

Date:

Astronomy

Jul. 28, 2013 Rise Set
Actual Time 6:20 AM MDT 8:22 PM MDT
Civil Twilight 5:52 AM MDT 8:50 PM MDT
Nautical Twilight 5:17 AM MDT 9:24 PM MDT
Astronomical Twilight 4:40 AM MDT 10:01 PM MDT
Moon No Moon Rise 12:49 PM MDT
Length of Visible Light 14h 57m
Length of Day
14h 01m
Waning Gibbous, 60% of the Moon is Illuminated
Jul 28
Waning Gibbous
Jul 29
Last Quarter
Aug 6
New
Aug 14
First Quarter
Aug 20
Full

Hourly Weather History & Observations

Time (MDT) Temp. Dew Point Humidity Pressure Visibility Wind Dir Wind Speed Gust Speed Precip Events Conditions
12:53 AM 66.0 °F 55.0 °F 68% 29.67 in 10.0 mi SSW 6.9 mph - N/A   Partly Cloudy
1:53 AM 66.0 °F 55.9 °F 70% 29.66 in 10.0 mi SW 6.9 mph - N/A   Overcast
2:53 AM 63.0 °F 57.9 °F 84% 29.65 in 10.0 mi South 5.8 mph - 0.03 in   Overcast
3:53 AM 61.0 °F 57.0 °F 87% 29.65 in 10.0 mi South 3.5 mph - N/A   Clear
4:53 AM 59.0 °F 55.9 °F 90% 29.68 in 10.0 mi Calm Calm - N/A   Clear
5:53 AM 59.0 °F 57.0 °F 93% 29.68 in 10.0 mi NE 3.5 mph - N/A   Overcast
6:53 AM 60.1 °F 57.9 °F 93% 29.70 in 10.0 mi Calm Calm - N/A   Overcast
7:53 AM 63.0 °F 57.9 °F 84% 29.70 in 10.0 mi SSE 3.5 mph - N/A   Overcast
8:53 AM 66.9 °F 57.0 °F 70% 29.70 in 10.0 mi WSW 9.2 mph - N/A   Clear
9:53 AM 72.0 °F 57.0 °F 59% 29.66 in 10.0 mi SW 15.0 mph - N/A   Clear
10:53 AM 75.0 °F 57.0 °F 53% 29.64 in 10.0 mi WSW 15.0 mph 20.7 mph N/A   Partly Cloudy
11:53 AM 79.0 °F 53.1 °F 40% 29.63 in 10.0 mi SW 13.8 mph 26.5 mph N/A   Partly Cloudy
12:53 PM 80.1 °F 48.9 °F 34% 29.63 in 10.0 mi West 18.4 mph 25.3 mph N/A   Partly Cloudy
1:53 PM 80.1 °F 51.1 °F 36% 29.62 in 10.0 mi West 15.0 mph 25.3 mph N/A Thunderstorm Clear
2:17 PM 75.2 °F 50.0 °F 41% 30.15 in 10.0 mi NNW 12.7 mph 24.2 mph N/A   Partly Cloudy
2:35 PM 75.2 °F 51.8 °F 44% 30.15 in 10.0 mi NNW 9.2 mph - N/A Thunderstorm Mostly Cloudy
2:53 PM 73.0 °F 54.0 °F 51% 29.70 in 8.0 mi WNW 20.7 mph 31.1 mph 0.00 in Rain , Thunderstorm Light Thunderstorms and Rain
3:11 PM 69.8 °F 53.6 °F 56% 30.14 in 10.0 mi North 3.5 mph - 0.02 in   Scattered Clouds
3:53 PM 75.0 °F 55.9 °F 51% 29.66 in 10.0 mi Variable 5.8 mph - 0.02 in Thunderstorm Scattered Clouds
4:22 PM 68.0 °F 53.6 °F 60% 30.14 in 10.0 mi NW 25.3 mph 33.4 mph 0.01 in Rain , Thunderstorm Light Rain
4:53 PM 71.1 °F 57.0 °F 61% 29.72 in 10.0 mi NW 6.9 mph - 0.01 in   Mostly Cloudy
5:53 PM 75.9 °F 55.0 °F 48% 29.67 in 10.0 mi NNW 6.9 mph - N/A   Partly Cloudy
6:53 PM 75.9 °F 54.0 °F 46% 29.65 in 10.0 mi Calm Calm - N/A   Clear
7:53 PM 71.1 °F 53.1 °F 53% 29.71 in 10.0 mi NW 34.5 mph 42.6 mph N/A Thunderstorm Mostly Cloudy
8:46 PM 62.6 °F 55.4 °F 77% 30.19 in 9.0 mi Calm Calm - 0.00 in Rain Light Rain
8:53 PM 63.0 °F 55.9 °F 78% 29.76 in 6.0 mi Calm Calm - 0.01 in Rain Rain
9:53 PM 62.1 °F 57.0 °F 84% 29.75 in 10.0 mi SW 8.1 mph - 0.00 in   Mostly Cloudy
10:53 PM 61.0 °F 57.0 °F 87% 29.74 in 10.0 mi Calm Calm - 0.00 in   Clear
11:53 PM 61.0 °F 55.0 °F 81% 29.71 in 10.0 mi Calm Calm - N/A   Partly Cloudy